Location: Unspecified
(51.0000°N, 12.0000°E)
Time: 02:56:54
(UTC+01:00)

ISS - Pass Details

Date: 11 January 2018
Orbit: 402 x 407 km, 51.6° (Epoch: 23 January)

Event Time Altitude Azimuth Distance (km) Brightness Sun altitude
Exits shadow 07:13:27 10° 267° (W) 1,481 -1.5 -8.8°
Reaches altitude 10° 07:13:30 10° 267° (W) 1,468 -1.5 -8.8°
Maximum altitude 07:16:02 21° 216° (SW) 982 -2.0 -8.4°
Drops below altitude 10° 07:18:34 10° 165° (SSE) 1,463 -0.4 -8.1°
Sets 07:20:58 0° 149° (SSE) 2,321 1.1 -7.7°
